EW5960 Weather Reports


time (UTC)temp
F
wind
direction
speed
knots
gust
knots
rain 1hr
in
rain 24hr
in
rain mn
in
humidity
%
barometer
mb
20260503215017 70 238 0.9 6.1 0.00 0.00 0.00 29 1004.0
20260503214016 70 280 1.7 7.8 0.00 0.00 0.00 29 1004.1
20260503213016 70 288 2.6 8.7 0.00 0.00 0.00 31 1004.0
20260503212016 71 284 1.7 6.1 0.00 0.00 0.00 34 1004.1
20260503211015 71 270 2.6 9.6 0.00 0.00 0.00 35 1004.2
20260503210016 71 276 2.6 6.1 0.00 0.00 0.00 35 1004.3
20260503205017 71 262 0.9 5.2 0.00 0.00 0.00 38 1004.3
20260503204016 71 281 2.6 6.1 0.00 0.00 0.00 38 1004.4
20260503203016 70 267 1.7 6.1 0.00 0.00 0.00 37 1004.3
20260503202016 70 283 2.6 9.6 0.00 0.00 0.00 39 1004.5
20260503201016 69 263 0.9 4.3 0.00 0.00 0.00 41 1004.6
20260503200016 69 274 1.7 5.2 0.00 0.00 0.00 39 1004.7
20260503195056 69 254 1.7 8.7 0.00 0.00 0.00 38 1004.7
20260503194056 69 275 2.6 6.1 0.00 0.00 0.00 39 1004.7
20260503193016 69 224 0.9 10.4 0.00 0.00 0.00 43 1004.7
20260503192016 69 250 1.7 7.8 0.00 0.00 0.00 42 1004.9
20260503191016 68 232 1.7 6.1 0.00 0.00 0.00 42 1005.1
20260503190016 69 263 1.7 7.0 0.00 0.00 0.00 44 1005.2
20260503185016 69 257 0.9 7.8 0.00 0.00 0.00 44 1005.2
20260503184016 69 257 1.7 6.1 0.00 0.00 0.00 44 1005.4
20260503183016 68 257 1.7 7.8 0.00 0.00 0.00 46 1005.5
20260503182016 68 270 1.7 7.0 0.00 0.00 0.00 46 1005.7
20260503181016 67 265 1.7 6.1 0.00 0.00 0.00 46 1005.8
20260503180016 67 236 1.7 7.8 0.00 0.00 0.00 47 1005.8
20260503175016 66 261 1.7 10.4 0.00 0.00 0.00 47 1005.8
20260503174016 65 216 4.3 9.6 0.00 0.00 0.00 50 1005.9
20260503173016 64 253 3.5 9.6 0.00 0.00 0.00 51 1006.0
20260503172056 64 224 6.1 11.3 0.00 0.00 0.00 52 1006.1
20260503171016 63 239 4.3 11.3 0.00 0.00 0.00 50 1006.3
20260503131016 54 163 7.0 11.3 0.00 0.00 0.00 62 1007.2
20260503081015 51 136 2.6 3.5 0.00 0.00 0.00 66 1009.3
20260503072015 51 153 1.7 2.6 0.00 0.00 0.00 65 1009.7
20260503071015 51 0.0 0.0 0.00 0.00 0.00 65 1009.8
20260503055055 52 230 3.5 5.2 0.00 0.00 0.00 61 1010.6
20260503054015 53 245 4.3 12.2 0.00 0.00 0.00 59 1010.7
20260503053015 53 196 7.0 10.4 0.00 0.00 0.00 57 1010.8
20260503052055 53 182 6.1 9.6 0.00 0.00 0.00 57 1010.8
20260503051015 53 173 4.3 7.8 0.00 0.00 0.00 56 1010.8
20260503050015 53 181 5.2 7.8 0.00 0.00 0.00 56 1010.9
20260503045015 53 172 4.3 6.1 0.00 0.00 0.00 55 1011.0
20260503044015 53 191 4.3 7.0 0.00 0.00 0.00 57 1011.1
20260503043015 52 202 5.2 7.8 0.00 0.00 0.00 58 1011.2
20260503042015 52 226 5.2 7.8 0.00 0.00 0.00 59 1011.3
20260503041015 52 241 2.6 6.1 0.00 0.00 0.00 59 1011.4
20260503040015 53 191 6.1 9.6 0.00 0.00 0.00 55 1011.6
20260503035015 53 156 6.1 8.7 0.00 0.00 0.00 54 1011.5
20260503034015 53 168 4.3 7.0 0.00 0.00 0.00 54 1011.6
20260503033015 53 199 4.3 7.0 0.00 0.00 0.00 57 1011.7
20260503032015 53 203 3.5 7.0 0.00 0.00 0.00 56 1011.9
20260503031015 53 210 2.6 6.1 0.00 0.00 0.00 55 1011.9
20260503030015 53 157 4.3 6.1 0.00 0.00 0.00 54 1012.0
20260503024055 53 171 3.5 5.2 0.00 0.00 0.00 54 1012.1
20260503023015 54 158 3.5 5.2 0.00 0.00 0.00 52 1012.2
20260503022015 54 172 3.5 5.2 0.00 0.00 0.00 53 1012.2
20260503021015 54 171 3.5 5.2 0.00 0.00 0.00 53 1012.3
20260503020015 54 158 3.5 4.3 0.00 0.00 0.00 52 1012.3
20260503015015 54 164 2.6 3.5 0.00 0.00 0.00 52 1012.4
20260503014015 54 162 3.5 5.2 0.00 0.00 0.00 53 1012.2
20260503013015 54 216 3.5 4.3 0.00 0.00 0.00 55 1012.2
20260503012015 55 226 3.5 6.1 0.00 0.00 0.00 54 1012.3
20260503011015 55 206 4.3 6.1 0.00 0.00 0.00 53 1012.2
20260503010015 55 228 2.6 5.2 0.00 0.00 0.00 55 1012.2
20260503005015 55 239 3.5 6.1 0.00 0.00 0.00 54 1012.3
20260503004015 55 258 1.7 4.3 0.00 0.00 0.00 53 1012.3
20260503003015 55 250 3.5 4.3 0.00 0.00 0.00 52 1012.4
20260503002135 56 270 0.9 6.1 0.00 0.00 0.00 50 1012.6
20260503001015 56 268 1.7 5.2 0.00 0.00 0.00 49 1012.6
20260502235014 57 267 1.7 7.8 0.00 0.00 0.00 47 1012.9
20260502234015 57 262 1.7 7.8 0.00 0.00 0.00 48 1012.7
20260502233015 58 269 1.7 5.2 0.00 0.00 0.00 45 1012.8
20260502232014 59 243 0.9 10.4 0.00 0.00 0.00 42 1012.9
20260502231055 59 271 2.6 10.4 0.00 0.00 0.00 42 1012.9
20260502230015 59 274 1.7 5.2 0.00 0.00 0.00 42 1013.0
20260502225015 59 273 2.6 8.7 0.00 0.00 0.00 43 1013.1
20260502224015 59 269 2.6 7.0 0.00 0.00 0.00 43 1013.2
20260502223014 58 275 0.9 3.5 0.00 0.00 0.00 42 1013.2
20260502222017 58 255 0.9 7.0 0.00 0.00 0.00 41 1013.2
20260502221056 59 265 2.6 12.2 0.00 0.00 0.00 41 1013.3
20260502220016 60 256 3.5 10.4 0.00 0.00 0.00 40 1013.4